Wichita Falls, TX

12:02 AM CST on November 24, 2017 (GMT -0600)
Sheppard Air Force Base-Wichita Falls Municipal

Weather History for KSPS - April, 2014

Change the Weather History Date:

Friday, April 25, 2014

  Actual Average Record
Temperature  
Mean Temperature 67 °F 65 °F  
Max Temperature 85 °F 78 °F 98 °F (2012)
Min Temperature 48 °F 53 °F 38 °F (2013)
Degree Days  
Heating Degree Days 0 3  
Month to date heating degree days 111 131  
Since 1 July heating degree days 3329 2934  
Cooling Degree Days 2 3  
Month to date cooling degree days 67 52  
Year to date cooling degree days 83 74  
Growing Degree Days 16 (Base 50)    
Moisture  
Dew Point 42 °F    
Average Humidity 47    
Maximum Humidity 71    
Minimum Humidity 23    
Precipitation  
Precipitation 0.00 in 0.11 in 2.54 in (1966)
Month to date precipitation 1.48 2.03  
Year to date precipitation 4.01 7.12  
Snow  
Snow 0.00 in - - ()
Month to date snowfall 0.0  
Snow Depth 0.00 in    
Sea Level Pressure  
Sea Level Pressure 29.89 in    
Wind  
Wind Speed 14 mph (SE)    
Max Wind Speed 25 mph    
Max Gust Speed 31 mph    
Visibility 10 miles    
Events      
T = Trace of Precipitation, MM = Missing Value Source: NWS Daily Summary

Daily Weather History Graph

Daily Weather History Graph

Search for Another Location

Airport or City:

Trip Planner

Search our weather history database for the weather conditions in past years. The results will help you decide how hot, cold, wet, or windy it might be!

Date:

Astronomy

Apr. 25, 2014 Rise Set
Actual Time 6:51 AM CDT 8:13 PM CDT
Civil Twilight 6:24 AM CDT 8:39 PM CDT
Nautical Twilight 5:53 AM CDT 9:10 PM CDT
Astronomical Twilight 5:20 AM CDT 9:43 PM CDT
Moon 4:29 AM CDT (4/25) 4:46 PM CDT (4/25)
Length of Visible Light 14h 14m
Length of Day
13h 21m
Waning Crescent, 15% of the Moon is Illuminated
Apr 25
Waning Crescent
Apr 29
New
May 6
First Quarter
May 14
Full
May 21
Last Quarter

Hourly Weather History & Observations

Time (CDT) Temp. Dew Point Humidity Pressure Visibility Wind Dir Wind Speed Gust Speed Precip Events Conditions
12:52 AM 57.9 °F 44.1 °F 60% 29.92 in 10.0 mi East 4.6 mph - N/A   Clear
1:52 AM 55.9 °F 43.0 °F 62% 29.91 in 10.0 mi ESE 5.8 mph - N/A   Clear
2:52 AM 54.0 °F 41.0 °F 62% 29.91 in 10.0 mi ESE 6.9 mph - N/A   Clear
3:52 AM 53.1 °F 41.0 °F 64% 29.91 in 10.0 mi ESE 5.8 mph - N/A   Clear
4:52 AM 52.0 °F 39.0 °F 61% 29.93 in 10.0 mi SSE 6.9 mph - N/A   Clear
5:52 AM 52.0 °F 39.9 °F 63% 29.95 in 10.0 mi SSE 3.5 mph - N/A   Clear
6:52 AM 50.0 °F 39.9 °F 68% 29.96 in 10.0 mi SSE 6.9 mph - N/A   Clear
7:52 AM 54.0 °F 44.1 °F 69% 29.99 in 10.0 mi SE 3.5 mph - N/A   Clear
8:52 AM 61.0 °F 39.9 °F 46% 30.00 in 10.0 mi SE 15.0 mph - N/A   Clear
9:52 AM 66.9 °F 39.0 °F 36% 30.00 in 10.0 mi SSE 15.0 mph 25.3 mph N/A   Clear
10:52 AM 72.0 °F 37.0 °F 28% 29.99 in 10.0 mi SSE 21.9 mph 26.5 mph N/A   Clear
11:52 AM 75.0 °F 37.0 °F 25% 29.98 in 10.0 mi SSE 17.3 mph 27.6 mph N/A   Clear
12:52 PM 77.0 °F 39.9 °F 26% 29.95 in 10.0 mi SE 17.3 mph 24.2 mph N/A   Clear
1:52 PM 80.1 °F 41.0 °F 25% 29.91 in 10.0 mi SE 18.4 mph 26.5 mph N/A   Clear
2:52 PM 82.0 °F 43.0 °F 25% 29.89 in 10.0 mi South 17.3 mph 26.5 mph N/A   Clear
3:52 PM 84.0 °F 43.0 °F 24% 29.86 in 10.0 mi SSE 20.7 mph 26.5 mph N/A   Clear
4:52 PM 82.9 °F 43.0 °F 24% 29.82 in 10.0 mi South 20.7 mph 29.9 mph N/A   Clear
5:52 PM 82.9 °F 42.1 °F 24% 29.81 in 10.0 mi SSE 20.7 mph 28.8 mph N/A   Partly Cloudy
6:52 PM 80.1 °F 42.1 °F 26% 29.80 in 10.0 mi SSE 18.4 mph - N/A   Scattered Clouds
7:52 PM 78.1 °F 42.1 °F 28% 29.78 in 10.0 mi SE 13.8 mph - N/A   Scattered Clouds
8:52 PM 73.0 °F 44.1 °F 35% 29.79 in 10.0 mi SE 16.1 mph - N/A   Scattered Clouds
9:52 PM 71.1 °F 44.1 °F 38% 29.78 in 10.0 mi SE 18.4 mph - N/A   Clear
10:52 PM 70.0 °F 45.0 °F 41% 29.78 in 10.0 mi SSE 15.0 mph - N/A   Clear
11:52 PM 71.1 °F 44.1 °F 38% 29.76 in 10.0 mi SSE 18.4 mph - N/A   Clear